Back to catalog

ARIANE 44LP DEB

AliveHEO
NORAD 27047·DEBRIS·🇫🇷 France

Launched Aug 8, 1989 from Guiana Space Centre

Loading…

Next Passes (next 24 hours)

TLE

FreshSource: Space-Track

Epoch: Sep 11, 2026, 17:40 UTC

1 27047U 89062K   26254.73624053  .00000191  00000-0  14191-2 0  9993
2 27047   8.8407 161.9770 6785398 199.5745 110.7195  2.79178581 15925

Track ARIANE 44LP DEB in real time with AllMySat

Download on the App Store